DELTA 1 DEB, 42090

Orbit data source: Space-Track

DELTA 1 DEB, 42090 is space debris in SSO originally from a launch on Sun, 15 Dec 1968 UTC launched from the Air Force Western Test Range (AFWTR). Debris objects in space refer to the collection of defunct objects orbiting the Earth. Examples of debris include non-operational satellites, rocket bodies, and fragments generated from explosions, collisions, or faulty payload assembly.

Loading next visibility...
Identifier
42090, 1968-114S
Orbit
SSO
Country
Flag of USUS
Related business
Manufacturer
Aerojet
Mission
Spacecraft
Bus & Motor
Unknown
Mass
Unknown
Launch date (UTC)
1968-12-15 (58 years ago)
Launch vehicle
Unknown
Launch site
Air Force Western Test Range (AFWTR)
Object type
Payload
Rocket body
Debris
Shape & HBR
Unknown shape, 0.1 m
Radar Cross Section
Medium (>0.1 m² and <1 m²)

Expand to show TLE details & history
Last TLE update: 1 week ago

TLE from 1 week ago
0 DELTA 1 DEB
1 42090U 68114S   26166.12828542  .00000282  00000-0  23148-2 0  9990
2 42090 101.4160 305.4219 0114579 211.7960 323.5451 12.41916608175438
Epoch: 2026-06-15T03:04Z
TLE epoch observation values (Epoch: 2026-06-15T03:04:43.860Z)
Latitude
5.26474°
Longitude
176.88091°
Altitude
1,428.305 km
Speed
7.18 km/s
True Right ascension
08h 25m 55s
True Declination
5° 14' 10"
Sunlit
Object was in daylight at epoch
Visualization orbit readout
Latitude
Unknown
Longitude
Unknown
Altitude
Unknown
Speed
Unknown
Apparent Right ascension
Unknown
Apparent Declination
Unknown
Sunlit
N/A
Visualization observer readout
Local Sidereal Time
00:54:42
Azimuth
Unknown
Elevation
Unknown
Doppler factor
Unknown
Orbital elements
Apogee altitude
1,586.248 km
Perigee altitude
1,405.805 km
Semi-major axis
7,874.164 km
Eccentricity
0.01146
Inclination
101.416°
RAAN
305.4219°
Arg. of periapsis
211.796°
True anomaly
322.75588°
Mean anomaly
323.5451°
Eccentric anomaly
323.1514°
Mean motion
3.10625 °/min
Orbital period
115.9 mins
BSTAR
0.0023148
Loading maneuver chart data...
Computing Atmospheric mass density...
Loading historical data...
Loading historical data...
Loading historical data...
Loading historical data...
Loading historical data...
Loading historical data...
Loading historical data...

Documentation

Showing up to 5 results
|